Location: De Har
(53.3413°N, 6.6858°E)
Time: 20:25:22
(UTC+00:00)

FENGYUN 3A - Pass Details

Date: 22 April 2026
Orbit: 821 x 833 km, 98.7° (Epoch: 21 May)

Event Time Altitude Azimuth Distance (km) Brightness Sun altitude
Rises 02:26:57 0° 13° (NNE) 3,394 7.9 -14.6°
Reaches altitude 10° 02:29:23 10° 8° (N) 2,456 6.9 -14.4°
Maximum altitude 02:34:36 49° 295° (WNW) 1,065 4.1 -13.8°
Enters shadow 02:38:14 19° 228° (SW) 1,874 4.8 -13.4°
